Fremont, NE

1:34 PM CDT on October 22, 2017 (GMT -0500)
Fremont Municipal

Weather History for KFET - October, 2012

Change the Weather History Date:

Thursday, October 18, 2012

  Actual Average Record
Temperature  
Mean Temperature 48 °F -  
Max Temperature 51 °F 61 °F 87 °F (1950)
Min Temperature 45 °F 39 °F 26 °F (1992)
Degree Days  
Heating Degree Days 17    
Moisture  
Dew Point 33 °F    
Average Humidity 60    
Maximum Humidity 92    
Minimum Humidity 35    
Precipitation  
Precipitation 0.09 in - - ()
Sea Level Pressure  
Sea Level Pressure 29.56 in    
Wind  
Wind Speed 27 mph (WNW)    
Max Wind Speed 45 mph    
Max Gust Speed 54 mph    
Visibility 10 miles    
Events Rain    
Averages and records for this station are not official NWS values.
T = Trace of Precipitation, MM = Missing Value Source: NWS Daily Summary

Daily Weather History Graph

Daily Weather History Graph

Search for Another Location

Airport or City:

Trip Planner

Search our weather history database for the weather conditions in past years. The results will help you decide how hot, cold, wet, or windy it might be!

Date:

Astronomy

Oct. 18, 2012 Rise Set
Actual Time 7:41 AM CDT 6:39 PM CDT
Civil Twilight 7:13 AM CDT 7:07 PM CDT
Nautical Twilight 6:41 AM CDT 7:39 PM CDT
Astronomical Twilight 6:09 AM CDT 8:11 PM CDT
Moon 11:27 AM CDT (10/18) 9:12 PM CDT (10/18)
Length of Visible Light 11h 53m
Length of Day
10h 57m
Waxing Crescent, 14% of the Moon is Illuminated
Oct 18
Waxing Crescent
Oct 21
First Quarter
Oct 29
Full
Nov 6
Last Quarter
Nov 13
New

Hourly Weather History & Observations

Time (CDT) Temp. Windchill Dew Point Humidity Pressure Visibility Wind Dir Wind Speed Gust Speed Precip Events Conditions
12:15 AM 50.0 °F - 24.8 °F 37% 29.58 in 10.0 mi West 21.9 mph 26.5 mph N/A   Clear
12:35 AM 50.0 °F - 23.7 °F 36% 29.58 in 10.0 mi West 18.4 mph 25.3 mph N/A   Clear
12:55 AM 50.4 °F - 23.7 °F 35% 29.58 in 10.0 mi West 20.7 mph 28.8 mph N/A   Clear
1:15 AM 49.8 °F - 23.9 °F 36% 29.57 in 10.0 mi West 20.7 mph 28.8 mph N/A   Clear
1:35 AM 49.6 °F - 23.9 °F 37% 29.57 in 10.0 mi West 20.7 mph - N/A   Clear
1:55 AM 48.7 °F - 24.1 °F 38% 29.56 in 10.0 mi West 18.4 mph 24.2 mph N/A   Clear
2:15 AM 49.1 °F - 23.7 °F 37% 29.56 in 10.0 mi West 21.9 mph 28.8 mph N/A   Clear
2:35 AM 49.1 °F - 23.5 °F 37% 29.56 in 10.0 mi West 21.9 mph 28.8 mph N/A   Clear
2:55 AM 49.1 °F - 23.4 °F 36% 29.56 in 10.0 mi West 24.2 mph 27.6 mph N/A   Clear
3:15 AM 49.5 °F - 23.7 °F 37% 29.55 in 10.0 mi West 24.2 mph 29.9 mph N/A   Mostly Cloudy
3:35 AM 48.9 °F - 23.9 °F 38% 29.54 in 10.0 mi West 21.9 mph 29.9 mph N/A   Scattered Clouds
3:55 AM 48.9 °F - 24.8 °F 39% 29.54 in 10.0 mi West 19.6 mph 33.4 mph N/A   Clear
4:15 AM 49.3 °F - 24.8 °F 38% 29.54 in 10.0 mi West 21.9 mph 32.2 mph N/A   Clear
4:35 AM 48.6 °F - 24.8 °F 39% 29.54 in 10.0 mi West 23.0 mph 28.8 mph N/A   Clear
4:55 AM 49.1 °F - 25.0 °F 39% 29.54 in 10.0 mi West 21.9 mph 26.5 mph N/A   Clear
5:15 AM 48.6 °F - 25.0 °F 40% 29.53 in 10.0 mi West 25.3 mph 28.8 mph N/A   Scattered Clouds
5:35 AM 48.7 °F - 24.8 °F 39% 29.53 in 10.0 mi West 25.3 mph 32.2 mph N/A   Scattered Clouds
5:55 AM 49.1 °F - 25.2 °F 39% 29.53 in 10.0 mi WNW 23.0 mph 29.9 mph N/A   Mostly Cloudy
6:35 AM 48.7 °F - 25.2 °F 40% 29.52 in 10.0 mi West 27.6 mph 32.2 mph N/A   Clear
6:55 AM 48.4 °F - 26.4 °F 42% 29.52 in 10.0 mi West 25.3 mph 33.4 mph N/A   Clear
7:15 AM 48.7 °F - 26.6 °F 42% 29.51 in 10.0 mi West 23.0 mph 32.2 mph N/A   Scattered Clouds
7:35 AM 49.6 °F - 26.2 °F 40% 29.51 in 10.0 mi West 23.0 mph 34.5 mph N/A   Mostly Cloudy
7:55 AM 50.9 °F - 26.4 °F 39% 29.51 in 10.0 mi WNW 26.5 mph 38.0 mph N/A   Overcast
8:15 AM 50.7 °F - 26.6 °F 39% 29.51 in 10.0 mi WNW 29.9 mph 38.0 mph N/A   Overcast
8:35 AM 50.9 °F - 27.1 °F 40% 29.51 in 10.0 mi WNW 31.1 mph 39.1 mph N/A   Overcast
8:55 AM 50.7 °F - 27.1 °F 40% 29.52 in 7.0 mi WNW 39.1 mph 48.3 mph N/A   Overcast
9:15 AM 50.5 °F - 28.4 °F 42% 29.52 in 10.0 mi WNW 32.2 mph 44.9 mph N/A   Overcast
9:35 AM 50.2 °F - 28.6 °F 43% 29.52 in 10.0 mi WNW 27.6 mph 42.6 mph N/A   Overcast
9:55 AM 50.2 °F - 29.3 °F 45% 29.52 in 10.0 mi WNW 34.5 mph 43.7 mph N/A   Overcast
10:15 AM 50.2 °F - 29.3 °F 45% 29.52 in 10.0 mi WNW 31.1 mph 39.1 mph N/A   Overcast
10:35 AM 50.9 °F - 29.8 °F 44% 29.52 in 10.0 mi WNW 32.2 mph 41.4 mph N/A   Overcast
10:55 AM 50.9 °F - 30.2 °F 45% 29.52 in 10.0 mi WNW 34.5 mph 44.9 mph N/A   Overcast
11:15 AM 50.7 °F - 31.8 °F 48% 29.52 in 10.0 mi WNW 29.9 mph 40.3 mph N/A   Overcast
11:35 AM 50.9 °F - 32.0 °F 48% 29.52 in 7.0 mi West 31.1 mph 46.0 mph N/A   Overcast
11:55 AM 51.1 °F - 32.7 °F 50% 29.52 in 7.0 mi WNW 40.3 mph 46.0 mph N/A   Overcast
12:15 PM 50.9 °F - 34.2 °F 53% 29.52 in 5.0 mi WNW 36.8 mph 50.6 mph N/A   Haze
12:35 PM 50.4 °F - 34.9 °F 55% 29.52 in 10.0 mi West 41.4 mph 52.9 mph N/A   Overcast
12:55 PM 49.6 °F - 36.5 °F 61% 29.53 in 7.0 mi WNW 44.9 mph 50.6 mph N/A   Overcast
1:15 PM 48.2 °F - 37.9 °F 68% 29.52 in 10.0 mi WNW 33.4 mph 41.4 mph N/A   Light Drizzle
1:35 PM 49.5 °F - 36.5 °F 61% 29.52 in 10.0 mi West 35.7 mph 47.2 mph N/A   Overcast
1:55 PM 49.1 °F - 37.2 °F 64% 29.52 in 10.0 mi WNW 34.5 mph 50.6 mph N/A   Overcast
2:15 PM 49.3 °F - 37.0 °F 63% 29.52 in 10.0 mi West 35.7 mph 49.5 mph N/A   Overcast
2:35 PM 49.8 °F - 37.2 °F 62% 29.51 in 10.0 mi West 38.0 mph 46.0 mph N/A   Overcast
2:55 PM 48.4 °F - 40.1 °F 73% 29.52 in 10.0 mi WNW 41.4 mph 54.1 mph N/A   Light Drizzle
3:15 PM 47.3 °F - 42.1 °F 82% 29.53 in 7.0 mi WNW 35.7 mph 48.3 mph N/A Rain Light Rain
3:35 PM 46.6 °F - 43.0 °F 87% 29.54 in 7.0 mi WNW 27.6 mph 39.1 mph 0.01 in   Drizzle
3:55 PM 46.4 °F 36.5 °F 43.3 °F 89% 29.54 in 5.0 mi WNW 34.5 mph 41.4 mph 0.03 in Rain Light Rain
4:15 PM 46.8 °F - 42.1 °F 84% 29.55 in 10.0 mi WNW 41.4 mph 48.3 mph N/A Rain Light Rain
4:35 PM 47.3 °F - 42.3 °F 83% 29.56 in 10.0 mi WNW 32.2 mph 46.0 mph N/A   Overcast
4:55 PM 47.3 °F - 41.9 °F 82% 29.57 in 10.0 mi WNW 40.3 mph 49.5 mph N/A   Overcast
5:15 PM 47.3 °F - 41.9 °F 82% 29.58 in 10.0 mi WNW 31.1 mph 46.0 mph N/A   Overcast
5:35 PM 46.6 °F - 42.3 °F 85% 29.59 in 10.0 mi WNW 35.7 mph 44.9 mph N/A   Light Drizzle
5:55 PM 46.6 °F - 42.3 °F 85% 29.60 in 10.0 mi WNW 39.1 mph 49.5 mph N/A Rain Light Rain
6:15 PM 46.0 °F 36.5 °F 42.8 °F 88% 29.60 in 10.0 mi WNW 31.1 mph 40.3 mph N/A Rain Rain
6:35 PM 45.9 °F 35.8 °F 42.8 °F 89% 29.62 in 10.0 mi WNW 34.5 mph 43.7 mph N/A   Light Drizzle
6:55 PM 45.7 °F 35.9 °F 42.8 °F 90% 29.62 in 10.0 mi WNW 32.2 mph 40.3 mph N/A Rain Light Rain
7:15 PM 45.7 °F 36.2 °F 42.8 °F 90% 29.63 in 10.0 mi WNW 29.9 mph 36.8 mph 0.01 in   Drizzle
7:35 PM 45.5 °F 35.8 °F 42.6 °F 90% 29.64 in 10.0 mi WNW 31.1 mph 41.4 mph 0.01 in   Drizzle
7:55 PM 45.5 °F 36.9 °F 42.6 °F 90% 29.64 in 10.0 mi NW 24.2 mph 40.3 mph 0.01 in Rain Light Rain
8:15 PM 45.5 °F 36.3 °F 42.4 °F 89% 29.65 in 10.0 mi WNW 27.6 mph 32.2 mph 0.01 in   Drizzle
8:35 PM 45.5 °F 36.0 °F 42.4 °F 89% 29.65 in 10.0 mi WNW 29.9 mph 35.7 mph 0.02 in Rain Rain
8:55 PM 45.7 °F 36.7 °F 42.6 °F 89% 29.65 in 10.0 mi WNW 26.5 mph 34.5 mph 0.02 in   Light Drizzle
9:15 PM 45.5 °F 36.9 °F 42.8 °F 90% 29.65 in 10.0 mi WNW 24.2 mph 34.5 mph N/A   Drizzle
9:35 PM 45.3 °F 36.1 °F 42.3 °F 89% 29.65 in 10.0 mi WNW 27.6 mph 41.4 mph 0.01 in   Drizzle
9:55 PM 45.0 °F 35.1 °F 42.4 °F 91% 29.65 in 10.0 mi WNW 31.1 mph 38.0 mph 0.02 in Rain Light Rain
10:15 PM 45.0 °F 36.6 °F 42.8 °F 92% 29.65 in 10.0 mi WNW 21.9 mph 32.2 mph N/A   Drizzle
10:35 PM 45.0 °F 36.0 °F 42.4 °F 91% 29.64 in 10.0 mi WNW 25.3 mph 36.8 mph N/A   Drizzle
10:55 PM 45.1 °F 36.6 °F 42.6 °F 91% 29.64 in 10.0 mi WNW 23.0 mph 38.0 mph 0.01 in Rain Rain